Satellite: INMARSAT 3-F1
Catalog number: 23839
Epoch time:      103055.67518267
Element set:     875 
Inclination:        0.0793 deg
RA of node:       325.6970 deg
Eccentricity:    0.0007481
Arg of perigee:    35.0721 deg
Mean anomaly:     100.2314 deg
Mean motion:    1.00269282 rev/day
Decay rate:    5.0000E-008 rev/day^2
Epoch rev:            2527
Checksum:      
Satellite: ASTRA 1F
Catalog number: 23842
Epoch time:      103049.00000000
Element set:     560 
Inclination:        0.0122 deg
RA of node:       319.8851 deg
Eccentricity:    0.0002995
Arg of perigee:    65.1991 deg
Mean anomaly:     141.6521 deg
Mean motion:    1.00273184 rev/day
Decay rate:    1.1600E-006 rev/day^2
Epoch rev:            2511
Checksum:              221

Satellite: JAS 2
Catalog number: 24278
Epoch time:      103055.90199122
Element set:     573 
Inclination:       98.5379 deg
RA of node:       206.2630 deg
Eccentricity:    0.0350317
Arg of perigee:   199.9725 deg
Mean anomaly:     158.7413 deg
Mean motion:   13.52872861 rev/day
Decay rate:   -5.0000E-008 revEpoch rev:           32216
Checksum:              403

Satellite: UNAMSAT
Catalog number: 24305
Epoch time:      103056.55460329
Element set:     665 
Inclination:       82.9297 deg
RA of node:       257.6139 deg
Eccentricity:    0.0029571
Arg of perigee:   180.9548 deg
Mean anomaly:     179.1545 deg
Mean motion:   13.73452570 rev/day
Decay rate:    2.0499E-006 rev/day^2
Epoch rev:           32444
Checksum:              332

Satellite: INMARSAT 3-F2
Catalog number: 24307
Epoch time:      103056.37332598
Element set:     85 
Inclination:        0.0628 deg
RA of node:        10.0341 deg
Eccentricity:    0.0005559
Arg of perigee:   345.0428 deg
Mean anomaly:     278.5919 deg
Mean motion:    1.00271450 rev/day
Decay rate:   -1.3799E-006 rev/day^2
Epoch rev:            2368
Checksum:              289

Satellite: HOT BIRD 2
Catalog number: 24665
Epoch time:      103051.87295777
Element set:     343 
Inclination:        0.0602 deg
RA of node:       278.0569 deg
Eccentricity:    0.0008075
Arg of perigee:    45.8891 deg
Mean anomaly:     153.6489 deg
Mean motion:    1.00273748 rev/day
Decay rate:    8.1000E-007 rev/day^2
Epoch rev:            2328
Checksum:              410

Satellite: INMARSAT 3-F3
Catalog number: 24674
Epoch time:      103055.60710036
Element set:     994 
Inclination:        0.0675 deg
RA of node:       307.1217 deg
Eccentricity:    0.0003799
Arg of perigee:     9.4976 deg
Mean anomaly:     234.0207 deg
Mean motion:    1.00272448 rev/day
Decay rate:    2.6999E-007 rev/day^2
Epoch rev:            2264
Checksum:              301

Satellite: GOES 10
Catalog number: 24786
Epoch time:      103055.71422109
Element set:     561 
Inclination:        0.1511 deg
RA of node:       105.4345 deg
Eccentricity:    0.0002149
Arg of perigee:   267.7854 deg
Mean anomaly:     262.8884 deg
Mean motion:    1.00261442 rev/day
Decay rate:    7.6999E-007 rev/day^2
Epoch rev:            2139
Checksum:     
Satellite: INMARSAT 3-F4
Catalog number: 24819
Epoch time:      103054.31435635
Element set:     888 
Inclination:        0.0432 deg
RA of node:       294.5288 deg
Eccentricity:    0.0003935
Arg of perigee:    36.0427 deg
Mean anomaly:     241.3306 deg
Mean motion:    1.00267632 rev/day
Decay rate:   -2.9499E-006 rev/day^2
Epoch rev:            2105
Checksum:              290

Satellite: FENGYUN 2A
Catalog number: 24834
Epoch time:      103055.72074264
Element set:     968 
Inclination:        2.5870 deg
RA of node:        88.3812 deg
Eccentricity:    0.0001212
Arg of perigee:   212.1120 deg
Mean anomaly:     199.0165 Mean motion:    1.00280350 rev/day
Decay rate:   -2.0800E-006 rev/day^2
Epoch rev:            2090
Checksum:              245

Satellite: HOT BIRD 3
Catalog number: 24931
Epoch time:      103051.86334527
Element set:     427 
Inclination:        0.0478 deg
RA of node:       160.3357 deg
Eccentricity:    0.0010425
Arg of perigee:   174.4081 deg
Mean anomaly:     139.3861 deg
Mean motion:    1.00275316 rev/day
Decay rate:    8.1000E-007 rev/day^2
Epoch rev:            2010
Checksum:              246

Satellite: METEOSAT 7
Catalog number: 24932
Epoch time:      103054.88922228
Element set:     255 
Inclination:      RA of node:        65.3564 deg
Eccentricity:    0.0001145
Arg of perigee:   262.1847 deg
Mean anomaly:     146.6053 deg
Mean motion:    1.00280731 rev/day
Decay rate:   -7.9999E-008 rev/day^2
Epoch rev:            2007
Checksum:              287

Satellite: ASTRA 1G
Catalog number: 25071
Epoch time:      103049.00000000
Element set:     392 
Inclination:        0.0122 deg
RA of node:       319.8851 deg
Eccentricity:    0.0002995
Arg of perigee:    65.1991 deg
Mean anomaly:     141.6317 deg
Mean motion:    1.00273184 rev/day
Decay rate:    1.1600E-006 rev/day^2
Epoch rev:            1913
Checksum:              228

Satellite: INMARSAT 3-F5
Catalog number: 25153
Epoch time:      103054.80580781
Element set:     849 
Inclination:        0.4666 deg
RA of node:       353.2016 deg
Eccentricity:    0.0002984
Arg of perigee:   342.7048 deg
Mean anomaly:     132.4452 deg
Mean motion:    1.00275433 rev/day
Decay rate:    1.3100E-006 rev/day^2
Epoch rev:            1855
Checksum:              273

Satellite: HOT BIRD 4
Catalog number: 25237
Epoch time:      103051.87002466
Element set:     328 
Inclination:        0.0941 deg
RA of node:       307.5522 deg
Eccentricity:    0.0007523
Arg of perigee:   323.6559 deg
Mean anomaly:     205.4369 deg
Mean motion:    1.00273901 rev/day
Decay rate:  Epoch rev:            1856
Checksum:              370

Satellite: NOAA 15
Catalog number: 25338
Epoch time:      103055.99122973
Element set:     19 
Inclination:       98.5488 deg
RA of node:        77.9668 deg
Eccentricity:    0.0009762
Arg of perigee:   301.7204 deg
Mean anomaly:      58.3022 deg
Mean motion:   14.24247954 rev/day
Decay rate:    1.6400E-006 rev/day^2
Epoch rev:           24871
Checksum:              330

Satellite: RESURS O1-N4
Catalog number: 25394
Epoch time:      103055.96026229
Element set:     459 
Inclination:       98.6302 deg
RA of node:       133.7700 deg
Eccentricity:    0.0002443
Arg of perigee:    89.8923 deg
Mean anomaly:     270.2535 deg
Mean motion:   14.23880340 rev/day
Decay rate:    1.1500E-006 rev/day^2
Epoch rev:           24044
Checksum:              290

Satellite: TMSAT
Catalog number: 25396
Epoch time:      103056.56467499
Element set:     826 
Inclination:       98.6243 deg
RA of node:       133.5295 deg
Eccentricity:    0.0003625
Arg of perigee:   109.7426 deg
Mean anomaly:     250.4144 deg
Mean motion:   14.23513762 rev/day
Decay rate:   -4.3000E-007 rev/day^2
Epoch rev:           24052
Checksum:              301

Satellite: TECHSAT 1B
Catalog number: 25397
Epoch time:      1Element set:     126 
Inclination:       98.6210 deg
RA of node:       131.8109 deg
Eccentricity:    0.0002199
Arg of perigee:   117.7747 deg
Mean anomaly:     242.3653 deg
Mean motion:   14.22961490 rev/day
Decay rate:    6.0999E-007 rev/day^2
Epoch rev:           24040
Checksum:              327

Satellite: ASTRA 2A
Catalog number: 25462
Epoch time:      103051.31926416
Element set:     533 
Inclination:        0.0870 deg
RA of node:       297.6948 deg
Eccentricity:    0.0007001
Arg of perigee:   278.8390 deg
Mean anomaly:      76.4419 deg
Mean motion:    1.00266022 rev/day
Decay rate:    9.9999E-009 rev/day^2
Epoch rev:            1645
Checksum:              307

Satellite: EUTELSAT W2
Catalog number: 25491
Epoch time:      103054.87350111
Element set:     581 
Inclination:        0.0035 deg
RA of node:       219.8387 deg
Eccentricity:    0.0006366
Arg of perigee:   134.6005 deg
Mean anomaly:     129.2966 deg
Mean motion:    1.00273680 rev/day
Decay rate:    9.2999E-007 rev/day^2
Epoch rev:            1610
Checksum:              286

Satellite: HOT BIRD 5
Catalog number: 25495
Epoch time:      103042.93716436
Element set:     500 
Inclination:        0.0310 deg
RA of node:       255.9940 deg
Eccentricity:    0.0003377
Arg of perigee:    65.4663 deg
Mean anomaly:  Mean motion:    1.00272693 rev/day
Decay rate:    1.6499E-006 rev/day^2
Epoch rev:            1595
Checksum:              286

Satellite: SEDSAT 1
Catalog number: 25509
Epoch time:      103055.52631610
Element set:     787 
Inclination:       31.4315 deg
RA of node:       119.5183 deg
Eccentricity:    0.0357573
Arg of perigee:   354.8331 deg
Mean anomaly:       4.8661 deg
Mean motion:   14.27443630 rev/day
Decay rate:    6.9299E-006 rev/day^2
Epoch rev:           22616
Checksum:              308

Satellite: PAN SAT
Catalog number: 25520
Epoch time:      103055.55834812
Element set:     641 
Inclination:       28.4634 deg
RA of node:       183.9707 deg
Eccentricity:    0.0005441
Arg of perigee:    55.5189 deg
Mean anomaly:     304.5864 deg
Mean motion:   15.13912763 rev/day
Decay rate:    1.9709E-005 rev/day^2
Epoch rev:           23849
Checksum:              424

Satellite: ISS (ZARYA)
Catalog number: 25544
Epoch time:      103056.51195713
Element set:     726 
Inclination:       51.6345 deg
RA of node:       221.1361 deg
Eccentricity:    0.0012122
Arg of perigee:   244.4040 deg
Mean anomaly:     219.0269 deg
Mean motion:   15.58741515 rev/day
Decay rate:    1.3862E-004 rev/day^2
Epoch rev:           24358
Checksum:              272

